| time (UTC) | temp C | wind direction | speed KPH | gust KPH | rain 1hr cm | rain 24hr cm | rain mn cm | humidity % | barometer mb |
| 20260507151511 | 13 | 339 | 0.0 | 0.0 | 0.00 | 0.05 | 0.03 | 74 | 1011.2 |
| 20260507151011 | 13 | 339 | 0.0 | 0.0 | 0.00 | 0.08 | 0.03 | 73 | 1011.4 |
| 20260507150510 | 13 | 339 | 0.0 | 0.0 | 0.00 | 0.10 | 0.03 | 73 | 1011.2 |
| 20260507150011 | 13 | 339 | 0.0 | 0.0 | 0.00 | 0.13 | 0.03 | 73 | 1011.1 |
| 20260507145011 | 13 | 339 | 0.0 | 0.0 | 0.00 | 0.13 | 0.03 | 73 | 1010.9 |
| 20260507144511 | 13 | 339 | 0.0 | 0.0 | 0.00 | 0.13 | 0.03 | 73 | 1010.9 |
| 20260507143011 | 13 | 339 | 0.0 | 0.0 | 0.00 | 0.13 | 0.03 | 74 | 1011.1 |
| 20260507142512 | 13 | 339 | 0.0 | 0.0 | 0.00 | 0.13 | 0.03 | 74 | 1011.3 |
| 20260507142012 | 13 | 339 | 0.0 | 0.0 | 0.00 | 0.13 | 0.03 | 74 | 1011.3 |
| 20260507141510 | 13 | 339 | 0.0 | 0.0 | 0.00 | 0.13 | 0.03 | 75 | 1011.3 |
| 20260507141012 | 13 | 339 | 0.0 | 0.0 | 0.00 | 0.15 | 0.03 | 74 | 1011.2 |
| 20260507140011 | 13 | 339 | 0.0 | 0.0 | 0.00 | 0.15 | 0.03 | 75 | 1011.2 |
| 20260507135511 | 13 | 339 | 0.0 | 0.0 | 0.00 | 0.15 | 0.03 | 76 | 1011.3 |
| 20260507135011 | 13 | 359 | 0.0 | 0.0 | 0.00 | 0.15 | 0.03 | 78 | 1011.3 |
| 20260507134011 | 14 | 4 | 0.0 | 0.0 | 0.00 | 0.15 | 0.03 | 80 | 1011.3 |
| 20260507133511 | 14 | 4 | 0.0 | 0.0 | 0.00 | 0.15 | 0.03 | 80 | 1011.1 |
| 20260507133011 | 13 | 4 | 0.0 | 0.0 | 0.00 | 0.15 | 0.03 | 80 | 1011.1 |
| 20260507132510 | 13 | 4 | 0.0 | 0.0 | 0.00 | 0.15 | 0.03 | 81 | 1010.8 |
| 20260507132011 | 13 | 4 | 0.0 | 0.0 | 0.00 | 0.15 | 0.03 | 81 | 1010.9 |
| 20260507130512 | 13 | 4 | 0.0 | 0.0 | 0.00 | 0.15 | 0.03 | 81 | 1010.8 |
| 20260507130010 | 13 | 4 | 0.0 | 0.0 | 0.00 | 0.15 | 0.03 | 81 | 1011.2 |
| 20260507125511 | 13 | 4 | 0.0 | 0.0 | 0.00 | 0.15 | 0.03 | 81 | 1011.2 |
| 20260507125011 | 14 | 4 | 0.0 | 0.0 | 0.00 | 0.15 | 0.03 | 82 | 1011.1 |
| 20260507124511 | 14 | 4 | 0.0 | 0.0 | 0.03 | 0.15 | 0.03 | 82 | 1011.0 |
| 20260507124011 | 14 | 4 | 0.0 | 0.0 | 0.03 | 0.15 | 0.03 | 82 | 1011.0 |
| 20260507123511 | 14 | 4 | 0.0 | 0.0 | 0.03 | 0.15 | 0.03 | 82 | 1010.7 |
| 20260507123011 | 14 | 4 | 0.0 | 0.0 | 0.03 | 0.15 | 0.03 | 82 | 1010.6 |
| 20260507121010 | 14 | 4 | 0.0 | 0.0 | 0.03 | 0.15 | 0.03 | 82 | 1010.7 |
| 20260507115511 | 13 | 4 | 0.0 | 0.0 | 0.03 | 0.15 | 0.03 | 82 | 1011.1 |
| 20260507115010 | 13 | 4 | 0.0 | 0.0 | 0.03 | 0.15 | 0.03 | 81 | 1011.0 |
| 20260507114511 | 13 | 4 | 0.0 | 0.0 | 0.00 | 0.13 | 0.00 | 81 | 1010.9 |
| 20260507114011 | 13 | 4 | 0.0 | 0.0 | 0.00 | 0.13 | 0.00 | 81 | 1010.7 |
| 20260507113511 | 13 | 4 | 0.0 | 0.0 | 0.00 | 0.13 | 0.00 | 81 | 1010.7 |
| 20260507113010 | 14 | 4 | 0.0 | 0.0 | 0.00 | 0.13 | 0.00 | 81 | 1010.5 |
| 20260507112511 | 14 | 4 | 0.0 | 0.0 | 0.00 | 0.13 | 0.00 | 81 | 1010.3 |
| 20260507111510 | 14 | 4 | 0.0 | 0.0 | 0.00 | 0.13 | 0.00 | 81 | 1010.5 |
| 20260507111010 | 14 | 4 | 0.0 | 0.0 | 0.00 | 0.13 | 0.00 | 81 | 1010.6 |
| 20260507110511 | 14 | 4 | 0.0 | 0.0 | 0.00 | 0.13 | 0.00 | 80 | 1010.5 |
| 20260507110011 | 14 | 4 | 0.0 | 0.0 | 0.00 | 0.13 | 0.00 | 80 | 1010.4 |
| 20260507105510 | 14 | 4 | 0.0 | 0.0 | 0.00 | 0.13 | 0.00 | 80 | 1010.2 |
| 20260507105011 | 14 | 4 | 0.0 | 0.0 | 0.00 | 0.13 | 0.00 | 80 | 1010.2 |
| 20260507104511 | 14 | 4 | 0.0 | 0.0 | 0.00 | 0.13 | 0.00 | 80 | 1010.3 |
| 20260507104011 | 14 | 359 | 0.0 | 0.0 | 0.00 | 0.13 | 0.00 | 80 | 1010.1 |
| 20260507103510 | 14 | 4 | 0.0 | 1.6 | 0.00 | 0.13 | 0.00 | 80 | 1009.8 |
| 20260507103011 | 15 | 5 | 0.0 | 0.0 | 0.00 | 0.13 | 0.00 | 80 | 1009.8 |
| 20260507102010 | 15 | 7 | 0.0 | 0.0 | 0.00 | 0.13 | 0.00 | 80 | 1009.5 |
| 20260507101511 | 15 | 5 | 0.0 | 0.0 | 0.00 | 0.13 | 0.00 | 80 | 1009.6 |
| 20260507101011 | 15 | 6 | 0.0 | 0.0 | 0.00 | 0.13 | 0.00 | 80 | 1009.9 |
| 20260507100510 | 15 | 6 | 0.0 | 0.0 | 0.00 | 0.13 | 0.00 | 80 | 1010.1 |
| 20260507095511 | 15 | 359 | 0.0 | 0.0 | 0.00 | 0.13 | 0.00 | 80 | 1009.9 |
| 20260507095012 | 15 | 359 | 0.0 | 0.0 | 0.00 | 0.13 | 0.00 | 79 | 1009.6 |
| 20260507094511 | 15 | 359 | 0.0 | 0.0 | 0.00 | 0.13 | 0.00 | 79 | 1009.6 |
| 20260507094010 | 16 | 359 | 0.0 | 0.0 | 0.00 | 0.13 | 0.00 | 80 | 1009.7 |
| 20260507093511 | 16 | 4 | 0.0 | 0.0 | 0.00 | 0.13 | 0.00 | 79 | 1009.8 |
| 20260507093010 | 16 | 4 | 0.0 | 0.0 | 0.00 | 0.13 | 0.00 | 79 | 1009.8 |
| 20260507092510 | 16 | 4 | 0.0 | 0.0 | 0.00 | 0.13 | 0.00 | 79 | 1009.9 |
| 20260507092011 | 16 | 354 | 0.0 | 0.0 | 0.00 | 0.13 | 0.00 | 78 | 1009.8 |
| 20260507091511 | 16 | 345 | 0.0 | 0.0 | 0.00 | 0.13 | 0.00 | 77 | 1009.7 |
| 20260507090511 | 17 | 345 | 0.0 | 0.0 | 0.00 | 0.13 | 0.00 | 76 | 1009.9 |
| 20260507090011 | 17 | 17 | 0.0 | 0.0 | 0.00 | 0.13 | 0.00 | 77 | 1009.8 |
| 20260507085010 | 18 | 330 | 0.0 | 0.0 | 0.00 | 0.13 | 0.00 | 78 | 1009.6 |
| 20260507084511 | 18 | 328 | 0.0 | 0.0 | 0.00 | 0.13 | 0.00 | 79 | 1009.3 |
| 20260507084011 | 19 | 353 | 0.0 | 0.0 | 0.00 | 0.13 | 0.00 | 80 | 1008.9 |
| 20260507083510 | 19 | 300 | 0.0 | 0.0 | 0.00 | 0.13 | 0.00 | 81 | 1008.7 |
| 20260507083010 | 19 | 228 | 0.0 | 0.0 | 0.00 | 0.13 | 0.00 | 81 | 1008.7 |
| 20260507082511 | 19 | 228 | 0.0 | 0.0 | 0.00 | 0.13 | 0.00 | 81 | 1008.7 |
| 20260507082011 | 19 | 228 | 0.0 | 0.0 | 0.00 | 0.13 | 0.00 | 81 | 1008.9 |
| 20260507081511 | 19 | 228 | 0.0 | 0.0 | 0.00 | 0.13 | 0.00 | 81 | 1008.6 |
| 20260507080511 | 19 | 228 | 0.0 | 0.0 | 0.00 | 0.13 | 0.00 | 80 | 1008.4 |
| 20260507080010 | 19 | 228 | 0.0 | 0.0 | 0.00 | 0.13 | 0.00 | 80 | 1008.4 |
| 20260507075510 | 20 | 228 | 0.0 | 0.0 | 0.00 | 0.13 | 0.00 | 80 | 1008.3 |
| 20260507074511 | 20 | 228 | 0.0 | 0.0 | 0.00 | 0.13 | 0.00 | 80 | 1008.2 |
| 20260507074010 | 20 | 228 | 0.0 | 0.0 | 0.00 | 0.13 | 0.00 | 79 | 1008.1 |
| 20260507073511 | 20 | 225 | 0.0 | 0.0 | 0.00 | 0.13 | 0.00 | 79 | 1008.1 |
| 20260507073011 | 20 | 225 | 0.0 | 0.0 | 0.00 | 0.13 | 0.00 | 79 | 1008.2 |
| 20260507072510 | 20 | 224 | 0.0 | 0.0 | 0.00 | 0.13 | 0.00 | 78 | 1008.5 |
| 20260507072010 | 20 | 224 | 0.0 | 0.0 | 0.00 | 0.13 | 0.00 | 78 | 1008.5 |
| 20260507071510 | 20 | 303 | 0.0 | 0.0 | 0.00 | 0.13 | 0.00 | 77 | 1008.7 |
| 20260507071011 | 20 | 301 | 0.0 | 1.6 | 0.00 | 0.13 | 0.00 | 76 | 1008.5 |
| 20260507070510 | 20 | 302 | 0.0 | 0.0 | 0.00 | 0.13 | 0.00 | 76 | 1008.4 |
| 20260507070013 | 20 | 297 | 0.0 | 3.2 | 0.00 | 0.13 | 0.00 | 75 | 1008.4 |
| 20260507065511 | 20 | 270 | 0.0 | 0.0 | 0.00 | 0.13 | 0.00 | 75 | 1008.3 |
| 20260507065011 | 20 | 276 | 0.0 | 8.0 | 0.00 | 0.13 | 0.00 | 75 | 1008.1 |
| 20260507064010 | 20 | 206 | 0.0 | 1.6 | 0.00 | 0.13 | 0.00 | 75 | 1007.9 |
| 20260507063511 | 20 | 240 | 0.0 | 3.2 | 0.00 | 0.13 | 0.00 | 75 | 1007.9 |
| 20260507062510 | 20 | 272 | 0.0 | 1.6 | 0.00 | 0.13 | 0.00 | 75 | 1007.9 |
| 20260507062010 | 21 | 239 | 0.0 | 3.2 | 0.00 | 0.13 | 0.00 | 75 | 1007.7 |
| 20260507061511 | 21 | 204 | 0.0 | 4.8 | 0.00 | 0.13 | 0.00 | 75 | 1007.8 |
| 20260507061010 | 21 | 243 | 1.6 | 3.2 | 0.00 | 0.13 | 0.00 | 75 | 1007.9 |
| 20260507060511 | 21 | 290 | 0.0 | 1.6 | 0.00 | 0.13 | 0.00 | 75 | 1007.9 |
| 20260507060011 | 20 | 289 | 0.0 | 4.8 | 0.00 | 0.13 | 0.00 | 75 | 1008.0 |
| 20260507055511 | 20 | 199 | 0.0 | 3.2 | 0.00 | 0.13 | 0.00 | 75 | 1008.1 |
| 20260507055010 | 20 | 284 | 0.0 | 3.2 | 0.00 | 0.13 | 0.00 | 75 | 1008.1 |
| 20260507054511 | 20 | 171 | 0.0 | 1.6 | 0.00 | 0.13 | 0.00 | 75 | 1008.3 |
| 20260507054011 | 21 | 148 | 0.0 | 0.0 | 0.00 | 0.13 | 0.00 | 74 | 1008.3 |
| 20260507053010 | 21 | 220 | 0.0 | 3.2 | 0.00 | 0.13 | 0.00 | 73 | 1008.4 |
| 20260507052510 | 21 | 261 | 0.0 | 3.2 | 0.00 | 0.13 | 0.00 | 73 | 1008.6 |
| 20260507051510 | 21 | 122 | 0.0 | 3.2 | 0.00 | 0.13 | 0.00 | 73 | 1008.8 |
| 20260507051010 | 20 | 262 | 0.0 | 3.2 | 0.00 | 0.13 | 0.00 | 74 | 1009.0 |
| 20260507050511 | 20 | 235 | 0.0 | 4.8 | 0.00 | 0.13 | 0.00 | 74 | 1009.0 |
| 20260507050010 | 20 | 280 | 0.0 | 4.8 | 0.00 | 0.13 | 0.00 | 74 | 1009.0 |
| 20260507045510 | 20 | 235 | 0.0 | 3.2 | 0.00 | 0.13 | 0.00 | 74 | 1009.2 |
| 20260507045011 | 20 | 270 | 0.0 | 4.8 | 0.00 | 0.13 | 0.00 | 74 | 1009.3 |
| 20260507044512 | 20 | 293 | 0.0 | 4.8 | 0.00 | 0.13 | 0.00 | 74 | 1009.4 |
| 20260507044010 | 20 | 281 | 0.0 | 4.8 | 0.00 | 0.13 | 0.00 | 74 | 1009.5 |
| 20260507043510 | 20 | 207 | 0.0 | 4.8 | 0.00 | 0.13 | 0.00 | 74 | 1009.5 |
| 20260507043011 | 20 | 56 | 0.0 | 4.8 | 0.00 | 0.13 | 0.00 | 74 | 1009.3 |
| 20260507042010 | 20 | 241 | 0.0 | 4.8 | 0.00 | 0.13 | 0.00 | 74 | 1009.4 |
| 20260507041510 | 20 | 238 | 0.0 | 1.6 | 0.00 | 0.13 | 0.00 | 75 | 1009.3 |
| 20260507041011 | 20 | 212 | 0.0 | 3.2 | 0.00 | 0.13 | 0.00 | 74 | 1009.3 |
| 20260507040011 | 20 | 228 | 0.0 | 3.2 | 0.00 | 0.13 | 0.00 | 75 | 1009.2 |
| 20260507035510 | 20 | 299 | 0.0 | 4.8 | 0.00 | 0.13 | 0.13 | 75 | 1009.2 |
| 20260507035010 | 20 | 244 | 0.0 | 0.0 | 0.00 | 0.13 | 0.13 | 75 | 1009.2 |
| 20260507034511 | 20 | 311 | 0.0 | 0.0 | 0.00 | 0.13 | 0.13 | 76 | 1009.2 |
| 20260507034010 | 20 | 237 | 0.0 | 1.6 | 0.00 | 0.13 | 0.13 | 76 | 1009.0 |
| 20260507033010 | 20 | 228 | 0.0 | 0.0 | 0.00 | 0.13 | 0.13 | 76 | 1008.9 |
| 20260507032511 | 20 | 278 | 0.0 | 0.0 | 0.00 | 0.13 | 0.13 | 76 | 1009.0 |
| 20260507032010 | 20 | 274 | 0.0 | 0.0 | 0.00 | 0.13 | 0.13 | 76 | 1009.0 |
| 20260507031510 | 20 | 271 | 0.0 | 0.0 | 0.00 | 0.13 | 0.13 | 77 | 1009.0 |
| 20260507031011 | 20 | 271 | 0.0 | 4.8 | 0.00 | 0.13 | 0.13 | 77 | 1008.8 |
| 20260507030510 | 20 | 266 | 0.0 | 1.6 | 0.00 | 0.13 | 0.13 | 77 | 1008.7 |
| 20260507025510 | 20 | 212 | 0.0 | 4.8 | 0.00 | 0.13 | 0.13 | 78 | 1008.8 |
| 20260507025011 | 19 | 230 | 0.0 | 4.8 | 0.00 | 0.13 | 0.13 | 78 | 1008.8 |
| 20260507023511 | 19 | 268 | 0.0 | 0.0 | 0.00 | 0.13 | 0.13 | 79 | 1009.2 |
| 20260507023011 | 19 | 266 | 0.0 | 1.6 | 0.00 | 0.13 | 0.13 | 79 | 1009.2 |
| 20260507022510 | 19 | 68 | 0.0 | 1.6 | 0.00 | 0.13 | 0.13 | 79 | 1009.2 |
| 20260507022010 | 19 | 208 | 0.0 | 3.2 | 0.00 | 0.13 | 0.13 | 79 | 1009.3 |
| 20260507021510 | 19 | 271 | 0.0 | 0.0 | 0.00 | 0.13 | 0.13 | 79 | 1009.5 |
| 20260507021010 | 19 | 292 | 0.0 | 0.0 | 0.00 | 0.13 | 0.13 | 79 | 1009.6 |
| 20260507020010 | 19 | 293 | 0.0 | 0.0 | 0.00 | 0.13 | 0.13 | 79 | 1009.3 |
| 20260507015511 | 19 | 293 | 0.0 | 0.0 | 0.00 | 0.13 | 0.13 | 79 | 1009.4 |
| 20260507014510 | 19 | 293 | 0.0 | 0.0 | 0.00 | 0.13 | 0.13 | 79 | 1009.4 |
| 20260507013510 | 19 | 293 | 0.0 | 0.0 | 0.00 | 0.13 | 0.13 | 79 | 1009.1 |
| 20260507013010 | 19 | 293 | 0.0 | 0.0 | 0.00 | 0.13 | 0.13 | 79 | 1009.2 |
| 20260507012510 | 19 | 293 | 0.0 | 0.0 | 0.00 | 0.13 | 0.13 | 79 | 1009.1 |
| 20260507011510 | 19 | 293 | 0.0 | 0.0 | 0.00 | 0.13 | 0.13 | 78 | 1009.3 |
| 20260507011010 | 19 | 293 | 0.0 | 0.0 | 0.00 | 0.13 | 0.13 | 78 | 1009.4 |
| 20260507010510 | 19 | 293 | 0.0 | 0.0 | 0.00 | 0.13 | 0.13 | 78 | 1009.2 |
| 20260507010010 | 20 | 293 | 0.0 | 0.0 | 0.00 | 0.13 | 0.13 | 78 | 1009.1 |
| 20260507005510 | 20 | 293 | 0.0 | 0.0 | 0.00 | 0.13 | 0.13 | 77 | 1009.2 |
| 20260507004510 | 20 | 296 | 0.0 | 1.6 | 0.00 | 0.13 | 0.13 | 77 | 1009.3 |
| 20260507004010 | 20 | 127 | 0.0 | 0.0 | 0.03 | 0.13 | 0.13 | 77 | 1009.4 |
| 20260507003510 | 20 | 127 | 0.0 | 0.0 | 0.03 | 0.13 | 0.13 | 77 | 1009.3 |
| 20260507002510 | 20 | 127 | 0.0 | 0.0 | 0.03 | 0.13 | 0.13 | 76 | 1009.3 |
| 20260507002010 | 20 | 127 | 0.0 | 0.0 | 0.03 | 0.13 | 0.13 | 76 | 1009.3 |
| 20260507001510 | 20 | 127 | 0.0 | 1.6 | 0.03 | 0.13 | 0.13 | 76 | 1009.4 |
| 20260507001011 | 20 | 321 | 0.0 | 1.6 | 0.03 | 0.13 | 0.13 | 76 | 1009.4 |
| 20260507000010 | 20 | 321 | 0.0 | 0.0 | 0.03 | 0.13 | 0.13 | 76 | 1009.2 |
| 20260506235510 | 21 | 321 | 0.0 | 0.0 | 0.03 | 0.13 | 0.13 | 75 | 1009.0 |
| 20260506235010 | 21 | 321 | 0.0 | 0.0 | 0.03 | 0.13 | 0.13 | 74 | 1008.9 |
| 20260506234510 | 21 | 321 | 0.0 | 0.0 | 0.03 | 0.13 | 0.13 | 74 | 1008.8 |
| 20260506234010 | 21 | 321 | 0.0 | 0.0 | 0.00 | 0.10 | 0.10 | 73 | 1008.8 |
| 20260506233510 | 21 | 321 | 0.0 | 1.6 | 0.00 | 0.10 | 0.10 | 73 | 1008.9 |
| 20260506233010 | 21 | 321 | 0.0 | 1.6 | 0.00 | 0.10 | 0.10 | 73 | 1008.9 |
| 20260506232510 | 21 | 321 | 0.0 | 1.6 | 0.00 | 0.10 | 0.10 | 72 | 1009.0 |
| 20260506232010 | 21 | 314 | 0.0 | 0.0 | 0.00 | 0.10 | 0.10 | 72 | 1008.9 |
| 20260506231010 | 21 | 313 | 0.0 | 0.0 | 0.00 | 0.10 | 0.10 | 72 | 1009.0 |
| 20260506230510 | 21 | 312 | 0.0 | 0.0 | 0.00 | 0.10 | 0.10 | 71 | 1009.0 |
| 20260506225509 | 21 | 298 | 0.0 | 0.0 | 0.00 | 0.10 | 0.10 | 71 | 1008.9 |
| 20260506225010 | 22 | 298 | 0.0 | 0.0 | 0.00 | 0.10 | 0.10 | 70 | 1009.0 |
| 20260506223509 | 22 | 272 | 0.0 | 1.6 | 0.00 | 0.10 | 0.10 | 69 | 1008.9 |
| 20260506223009 | 22 | 272 | 0.0 | 0.0 | 0.00 | 0.10 | 0.10 | 67 | 1008.9 |
| 20260506222510 | 22 | 272 | 0.0 | 1.6 | 0.00 | 0.10 | 0.10 | 67 | 1008.9 |
| 20260506222010 | 22 | 231 | 0.0 | 4.8 | 0.00 | 0.10 | 0.10 | 66 | 1008.8 |
| 20260506221010 | 22 | 186 | 1.6 | 11.3 | 0.00 | 0.10 | 0.10 | 66 | 1008.8 |
| 20260506220510 | 22 | 253 | 0.0 | 3.2 | 0.00 | 0.10 | 0.10 | 65 | 1008.8 |
| 20260506220010 | 22 | 299 | 0.0 | 1.6 | 0.00 | 0.10 | 0.10 | 65 | 1008.9 |
| 20260506215510 | 22 | 285 | 0.0 | 0.0 | 0.00 | 0.10 | 0.10 | 66 | 1008.9 |
| 20260506215010 | 22 | 216 | 0.0 | 0.0 | 0.00 | 0.10 | 0.10 | 66 | 1008.9 |
| 20260506214510 | 22 | 214 | 0.0 | 3.2 | 0.00 | 0.10 | 0.10 | 65 | 1009.1 |
| 20260506214009 | 22 | 263 | 0.0 | 3.2 | 0.00 | 0.10 | 0.10 | 66 | 1009.2 |
| 20260506213510 | 22 | 94 | 0.0 | 1.6 | 0.00 | 0.10 | 0.10 | 65 | 1009.2 |
| 20260506213010 | 22 | 138 | 1.6 | 8.0 | 0.00 | 0.10 | 0.10 | 66 | 1009.3 |
| 20260506212510 | 22 | 202 | 1.6 | 9.7 | 0.00 | 0.10 | 0.10 | 66 | 1009.1 |
| 20260506212009 | 22 | 325 | 0.0 | 3.2 | 0.00 | 0.10 | 0.10 | 67 | 1009.1 |
| 20260506211510 | 22 | 291 | 1.6 | 11.3 | 0.00 | 0.10 | 0.10 | 68 | 1008.9 |
| 20260506211010 | 21 | 261 | 1.6 | 4.8 | 0.00 | 0.10 | 0.10 | 68 | 1009.0 |
| 20260506210009 | 21 | 263 | 1.6 | 4.8 | 0.00 | 0.10 | 0.10 | 68 | 1009.0 |
| 20260506205510 | 21 | 215 | 0.0 | 3.2 | 0.00 | 0.10 | 0.10 | 71 | 1009.0 |
| 20260506205010 | 21 | 251 | 0.0 | 11.3 | 0.00 | 0.10 | 0.10 | 70 | 1009.0 |
| 20260506204510 | 21 | 134 | 1.6 | 3.2 | 0.00 | 0.10 | 0.10 | 70 | 1008.9 |
| 20260506204010 | 21 | 208 | 0.0 | 4.8 | 0.00 | 0.10 | 0.10 | 71 | 1009.0 |
| 20260506203510 | 21 | 298 | 0.0 | 4.8 | 0.00 | 0.10 | 0.10 | 73 | 1008.9 |
| 20260506203009 | 21 | 297 | 0.0 | 4.8 | 0.00 | 0.10 | 0.10 | 72 | 1008.9 |
| 20260506202509 | 21 | 247 | 1.6 | 4.8 | 0.00 | 0.10 | 0.10 | 74 | 1008.8 |
| 20260506201511 | 21 | 256 | 0.0 | 4.8 | 0.00 | 0.10 | 0.10 | 72 | 1008.7 |
| 20260506201009 | 21 | 310 | 0.0 | 1.6 | 0.00 | 0.10 | 0.10 | 73 | 1008.7 |
| 20260506200009 | 20 | 263 | 0.0 | 3.2 | 0.00 | 0.10 | 0.10 | 74 | 1008.3 |
| 20260506195510 | 20 | 319 | 0.0 | 4.8 | 0.00 | 0.10 | 0.10 | 75 | 1008.2 |
| 20260506194509 | 20 | 289 | 0.0 | 0.0 | 0.00 | 0.10 | 0.10 | 77 | 1008.5 |
| 20260506194010 | 20 | 274 | 0.0 | 1.6 | 0.00 | 0.10 | 0.10 | 76 | 1008.6 |
| 20260506193510 | 20 | 256 | 0.0 | 3.2 | 0.00 | 0.10 | 0.10 | 76 | 1008.7 |
| 20260506192509 | 20 | 315 | 0.0 | 1.6 | 0.00 | 0.10 | 0.10 | 76 | 1008.9 |
| 20260506192009 | 19 | 252 | 0.0 | 3.2 | 0.00 | 0.10 | 0.10 | 77 | 1009.2 |
| 20260506191510 | 19 | 255 | 0.0 | 0.0 | 0.00 | 0.10 | 0.10 | 77 | 1009.1 |
| 20260506191010 | 19 | 255 | 0.0 | 0.0 | 0.00 | 0.10 | 0.10 | 78 | 1008.8 |
| 20260506190510 | 19 | 247 | 0.0 | 0.0 | 0.00 | 0.10 | 0.10 | 78 | 1009.0 |
| 20260506190009 | 19 | 208 | 0.0 | 0.0 | 0.00 | 0.10 | 0.10 | 78 | 1009.1 |
| 20260506185509 | 18 | 211 | 0.0 | 0.0 | 0.00 | 0.10 | 0.10 | 78 | 1009.4 |
| 20260506184510 | 18 | 227 | 0.0 | 4.8 | 0.00 | 0.10 | 0.10 | 78 | 1009.7 |
| 20260506184009 | 19 | 124 | 0.0 | 3.2 | 0.00 | 0.10 | 0.10 | 78 | 1009.9 |
| 20260506183509 | 18 | 352 | 0.0 | 3.2 | 0.00 | 0.10 | 0.10 | 78 | 1010.1 |
| 20260506182510 | 18 | 198 | 0.0 | 0.0 | 0.00 | 0.10 | 0.10 | 78 | 1010.2 |
| 20260506182010 | 18 | 204 | 0.0 | 4.8 | 0.00 | 0.10 | 0.10 | 77 | 1010.3 |
| 20260506181509 | 19 | 301 | 0.0 | 1.6 | 0.00 | 0.10 | 0.10 | 78 | 1010.4 |
| 20260506181009 | 19 | 279 | 0.0 | 1.6 | 0.00 | 0.10 | 0.10 | 77 | 1010.5 |
| 20260506180510 | 19 | 179 | 0.0 | 0.0 | 0.00 | 0.10 | 0.10 | 76 | 1010.7 |
| 20260506180010 | 19 | 178 | 0.0 | 3.2 | 0.00 | 0.10 | 0.10 | 75 | 1010.6 |
| 20260506175509 | 19 | 278 | 0.0 | 3.2 | 0.00 | 0.10 | 0.10 | 75 | 1010.7 |
| 20260506175009 | 19 | 275 | 1.6 | 3.2 | 0.00 | 0.10 | 0.10 | 75 | 1010.7 |
| 20260506174509 | 19 | 297 | 0.0 | 3.2 | 0.00 | 0.10 | 0.10 | 75 | 1010.6 |
| 20260506174010 | 18 | 222 | 1.6 | 4.8 | 0.00 | 0.10 | 0.10 | 75 | 1010.6 |
| 20260506172509 | 18 | 325 | 0.0 | 3.2 | 0.00 | 0.10 | 0.10 | 76 | 1010.4 |
| 20260506172009 | 18 | 237 | 0.0 | 3.2 | 0.00 | 0.10 | 0.10 | 77 | 1010.4 |
| 20260506171010 | 18 | 321 | 0.0 | 3.2 | 0.00 | 0.10 | 0.10 | 77 | 1010.6 |
| 20260506170509 | 18 | 264 | 1.6 | 4.8 | 0.00 | 0.10 | 0.10 | 77 | 1010.8 |
| 20260506170010 | 18 | 310 | 0.0 | 4.8 | 0.00 | 0.10 | 0.10 | 78 | 1010.6 |
| 20260506165010 | 18 | 199 | 0.0 | 0.0 | 0.00 | 0.10 | 0.10 | 79 | 1010.6 |
| 20260506164509 | 18 | 265 | 0.0 | 8.0 | 0.00 | 0.10 | 0.10 | 78 | 1010.7 |
| 20260506164010 | 18 | 285 | 0.0 | 0.0 | 0.00 | 0.10 | 0.10 | 79 | 1010.6 |
| 20260506163009 | 18 | 187 | 0.0 | 4.8 | 0.00 | 0.10 | 0.10 | 79 | 1010.8 |
| 20260506162509 | 18 | 183 | 0.0 | 0.0 | 0.00 | 0.10 | 0.10 | 79 | 1011.0 |
| 20260506162010 | 18 | 183 | 0.0 | 4.8 | 0.00 | 0.10 | 0.10 | 78 | 1010.9 |
| 20260506161510 | 18 | 125 | 0.0 | 4.8 | 0.00 | 0.10 | 0.10 | 79 | 1010.8 |
| 20260506161010 | 18 | 116 | 0.0 | 4.8 | 0.03 | 0.10 | 0.10 | 80 | 1010.9 |
| 20260506160509 | 17 | 281 | 0.0 | 1.6 | 0.05 | 0.10 | 0.10 | 80 | 1011.1 |
| 20260506160009 | 17 | 154 | 0.0 | 0.0 | 0.08 | 0.10 | 0.10 | 80 | 1011.1 |
| 20260506155509 | 17 | 155 | 0.0 | 1.6 | 0.08 | 0.10 | 0.10 | 80 | 1011.2 |
| 20260506155010 | 17 | 263 | 0.0 | 0.0 | 0.08 | 0.10 | 0.10 | 80 | 1011.4 |
| 20260506154509 | 17 | 273 | 0.0 | 0.0 | 0.08 | 0.10 | 0.10 | 81 | 1011.5 |
| 20260506154009 | 17 | 277 | 0.0 | 0.0 | 0.08 | 0.10 | 0.10 | 80 | 1011.6 |
| 20260506153509 | 17 | 280 | 0.0 | 0.0 | 0.08 | 0.10 | 0.10 | 80 | 1011.5 |
| 20260506152510 | 17 | 297 | 0.0 | 0.0 | 0.08 | 0.10 | 0.10 | 80 | 1011.5 |
| 20260506152009 | 17 | 298 | 0.0 | 0.0 | 0.08 | 0.10 | 0.10 | 79 | 1011.7 |